Home   Weather   Piraeus   Past weeks

Flag for Greece Past Weather in Piraeus, Greece — Yesterday and Last 2 Weeks

72 °F

Scattered clouds.

Feels Like: 77 °F
Forecast: 61 / 68 °F
Wind: 15 mph from Northwest

Location: Elefsis Airport

Current Time: Oct 26, 2016 at 2:32:59 PM

Latest Report: Oct 26, 2016 at 1:50 PM

Visibility: N/A

Pressure: 30.07 "Hg

Humidity: 47%

Dew Point: 50 °F

Location of PiraeusLocation

Past Weather in Piraeus — Graph


Piraeus Temperature Yesterday

Maximum temperature yesterday: 72 °F (at 1:50 PM)
Minimum temperature yesterday: 63 °F (at 12:50 AM)
Average temperature yesterday: 66 °F

High & Low Weather Summary for the Past Weeks

High82 °F (Oct 12, 4:20 PM)100% (Oct 19, 10:50 PM)30.30 "Hg (Oct 19, 10:50 PM)
Low50 °F (Oct 19, 6:50 AM)13% (Oct 13, 4:50 PM)29.74 "Hg (Oct 12, 1:50 AM)
Average66 °F60%30.09 "Hg
* Reported Oct 11 1:20 PM — Oct 26 1:20 PM, Piraeus, Weather by CustomWeather, © 2016

Note: Actual official high and low records may vary slightly from our data, if they occured in-between our weather recording intervals... More about our weather records


Piraeus Weather History for the Previous 24 Hours

Scroll right to see more
Time TempWeatherWind HumidityBarometerVisibility
1:20 PM
Wed, Oct 26
72 °FPassing clouds.12 mph47%30.09 "HgN/A
12:50 PM72 °FPassing clouds.12 mph47%30.09 "HgN/A
12:20 PM70 °FPassing clouds.13 mph50%30.15 "HgN/A
11:50 AM70 °FPassing clouds.13 mph50%30.15 "HgN/A
11:20 AM68 °FPassing clouds.14 mph53%30.15 "HgN/A
10:50 AM68 °FPassing clouds.14 mph53%30.15 "HgN/A
10:20 AM66 °FPassing clouds.13 mph56%30.15 "HgN/A
9:50 AM66 °FPassing clouds.10 mph56%30.15 "HgN/A
9:20 AM64 °FPassing clouds.12 mph64%30.15 "HgN/A
8:50 AM64 °FPassing clouds.12 mph64%30.15 "HgN/A
8:20 AM63 °FPassing clouds.14 mph64%30.15 "HgN/A
7:50 AM63 °FPassing clouds.15 mph64%30.15 "HgN/A
7:20 AM63 °FPassing clouds.14 mph64%30.12 "HgN/A
6:50 AM63 °FPassing clouds.14 mph64%30.12 "HgN/A
6:20 AM63 °FPassing clouds.14 mph64%30.15 "HgN/A
5:50 AM63 °FPassing clouds.15 mph64%30.12 "HgN/A
5:20 AM63 °FPassing clouds.12 mph64%30.12 "HgN/A
4:50 AM63 °FPassing clouds.12 mph64%30.15 "HgN/A
4:20 AM63 °FPassing clouds.12 mph64%30.15 "HgN/A
3:50 AM63 °FPassing clouds.14 mph64%30.15 "HgN/A
3:20 AM63 °FPassing clouds.15 mph64%30.15 "HgN/A
2:50 AM63 °FPassing clouds.12 mph64%30.18 "HgN/A
2:20 AM63 °FPassing clouds.12 mph64%30.18 "HgN/A
1:50 AM63 °FPassing clouds.10 mph64%30.21 "HgN/A
1:20 AM63 °FPassing clouds.12 mph64%30.21 "HgN/A
12:50 AM63 °FPassing clouds.10 mph64%30.21 "HgN/A
12:20 AM63 °FPassing clouds.13 mph59%30.21 "HgN/A
11:50 PM
Tue, Oct 25
63 °FPassing clouds.9 mph59%30.21 "HgN/A
11:20 PM63 °FPassing clouds.10 mph64%30.21 "HgN/A
10:50 PM63 °FPassing clouds.10 mph64%30.21 "HgN/A
10:20 PM63 °FPassing clouds.7 mph64%30.21 "HgN/A
9:50 PM63 °FPassing clouds.9 mph64%30.21 "HgN/A
9:20 PM63 °FPassing clouds.9 mph64%30.21 "HgN/A
8:50 PM63 °FPassing clouds.12 mph64%30.21 "HgN/A
8:20 PM64 °FPassing clouds.12 mph56%30.21 "HgN/A
7:50 PM64 °FPassing clouds.12 mph56%30.21 "HgN/A
7:20 PM64 °FPassing clouds.14 mph60%30.21 "HgN/A
6:50 PM64 °FPassing clouds.12 mph56%30.21 "HgN/A
6:20 PM66 °FPassing clouds.15 mph52%30.21 "HgN/A
5:50 PM66 °FPassing clouds.14 mph52%30.21 "HgN/A
5:20 PM68 °FPassing clouds.13 mph49%30.21 "HgN/A
4:50 PM68 °FPassing clouds.15 mph49%30.21 "HgN/A
4:20 PM70 °FPassing clouds.14 mph43%30.21 "HgN/A
3:50 PM70 °FScattered clouds.13 mph43%30.21 "HgN/A
3:20 PM72 °FScattered clouds.14 mph44%30.21 "HgN/A
2:50 PM72 °FScattered clouds.14 mph44%30.21 "HgN/A
2:20 PM70 °FScattered clouds.12 mph46%30.24 "HgN/A
Weather by CustomWeather, © 2016

See weather overviewHow to use our weather pages